Location: Voyageurs National Park
(48.5020°N, 92.9292°W)
Time: 14:52:54
(UTC-05:00)

CZ-4 R/B - Pass Details

Date: 19 January 2018
Orbit: 534 x 598 km, 97.8° (Epoch: 21 May)

Event Time Altitude Azimuth Distance (km) Brightness Sun altitude
Rises 06:49:21 0° 14° (NNE) 2,827 4.9 -10.8°
Reaches altitude 10° 06:51:32 10° 15° (NNE) 1,913 4.0 -10.4°
Maximum altitude 06:55:41 80° 103° (ESE) 590 1.6 -9.8°
Drops below altitude 10° 06:59:44 10° 191° (S) 1,859 4.1 -9.1°
Sets 07:01:50 0° 192° (SSW) 2,739 5.0 -8.8°
